Saint Louis, Missouri, United States (63101)
Lat: 38.63N, Lon: 90.2W
Wx Zone: MOZ064
Local Info
Past Weather Observations for Today

NOTE: This archive is for the closest National Weather Service station to Saint Louis. Information may differ from the station used for current weather conditions.

Click here for Long-term Archive

Time Weather Temperature Dewpoint Humidity Pressure Winds Precip Visibility
21:53
Clear
50°F / 10°C 37°F / 3°C 62% 30.04 in
(1017 mb)
NE 8.1 mph
(NE 13 kph)
- 10SM
20:53
Clear
52°F / 11°C 39°F / 4°C 62% 30.04 in
(1017 mb)
NE 9.2 mph
(NE 15 kph)
- 10SM
19:53
Clear
54°F / 12°C 37°F / 3°C 54% 30.01 in
(1016 mb)
NE 8.1 mph
(NE 13 kph)
- 10SM
18:53
Clear
57°F / 14°C 37°F / 3°C 48% 29.98 in
(1015 mb)
NE 9.2 mph
(NE 15 kph)
- 10SM
17:53
Clear
61°F / 16°C 37°F / 3°C 42% 29.95 in
(1014 mb)
NE 10.4 mph
(NE 17 kph)
- 10SM
16:53
Clear
63°F / 17°C 36°F / 2°C 37% 29.95 in
(1014 mb)
NE 11.5 mph
(NE 19 kph)
- 10SM
15:53
Clear
63°F / 17°C 37°F / 3°C 39% 29.95 in
(1014 mb)
N 11.5 mph
(N 19 kph)
- 10SM
14:53
Clear
63°F / 17°C 37°F / 3°C 39% 29.95 in
(1014 mb)
NE 12.7 mph
(NE 20 kph)
- 10SM
13:53
Clear
63°F / 17°C 39°F / 4°C 42% 29.95 in
(1014 mb)
NE 10.4 mph
(NE 17 kph)
- 10SM
12:53
Clear
61°F / 16°C 36°F / 2°C 39% 29.95 in
(1014 mb)
NE 13.8 mph
(NE 22 kph)
- 10SM
11:53
Clear
61°F / 16°C 39°F / 4°C 45% 29.95 in
(1014 mb)
NE 10.4 mph
(NE 17 kph)
- 10SM
10:53
Clear
59°F / 15°C 36°F / 2°C 42% 29.98 in
(1015 mb)
N 10.4 mph
(N 17 kph)
- 10SM
09:53
Clear
55°F / 13°C 39°F / 4°C 55% 29.95 in
(1014 mb)
NNE 9.2 mph
(NNE 15 kph)
- 10SM
08:53
Clear
54°F / 12°C 39°F / 4°C 58% 29.95 in
(1014 mb)
NE 9.2 mph
(NE 15 kph)
- 10SM
07:53
Partly Cloudy
52°F / 11°C 39°F / 4°C 62% 29.95 in
(1014 mb)
NE 10.4 mph
(NE 17 kph)
- 10SM
06:53
Overcast
48°F / 9°C 39°F / 4°C 71% 29.92 in
(1013 mb)
NNE 12.7 mph
(NNE 20 kph)
- 10SM
06:41
Overcast
48°F / 9°C 41°F / 5°C 76% 29.92 in
(1013 mb)
NE 12.7 mph
(NE 20 kph)
- 10SM
05:53
Overcast
48°F / 9°C 43°F / 6°C 82% 29.89 in
(1012 mb)
NE 12.7 mph
(NE 20 kph)
- 8SM
05:04
Overcast
48°F / 9°C 43°F / 6°C 82% 29.86 in
(1011 mb)
NE 12.7 mph
(NE 20 kph)
- 7SM
04:53
Overcast
48°F / 9°C 43°F / 6°C 82% 29.86 in
(1011 mb)
NNE 11.5 mph
(NNE 19 kph)
- 7SM
04:08
Overcast
48°F / 9°C 43°F / 6°C 82% 29.83 in
(1010 mb)
NNE 10.4 mph
(NNE 17 kph)
- 8SM
03:53
Overcast
48°F / 9°C 45°F / 7°C 87% 29.83 in
(1010 mb)
N 11.5 mph
(N 19 kph)
- 8SM
03:10
Overcast
48°F / 9°C 45°F / 7°C 87% 29.83 in
(1010 mb)
NE 6.9 mph
(NE 11 kph)
- 10SM
02:53
Overcast
48°F / 9°C 45°F / 7°C 87% 29.83 in
(1010 mb)
NE 11.5 mph
(NE 19 kph)
- 10SM
02:39
Overcast
48°F / 9°C 45°F / 7°C 87% 29.8 in
(1009 mb)
NE 13.8 mph
(NE 22 kph)
- 9SM
02:11
Overcast
Fog And Mist
48°F / 9°C 45°F / 7°C 87% 29.8 in
(1009 mb)
N 12.7 mph
(N 20 kph)
- 6SM
01:53
Overcast
48°F / 9°C 45°F / 7°C 87% 29.8 in
(1009 mb)
NNE 11.5 mph
(NNE 19 kph)
- 7SM
00:53
Overcast
48°F / 9°C 45°F / 7°C 87% 29.8 in
(1009 mb)
NNE 13.8 mph
(NNE 22 kph)
- 9SM
00:44
Overcast
48°F / 9°C 45°F / 7°C 87% 29.8 in
(1009 mb)
NNE 15 mph
(NNE 24 kph)
- 9SM
00:34
Overcast
48°F / 9°C 45°F / 7°C 87% 29.77 in
(1008 mb)
NE 10.4 mph
(NE 17 kph)
- 9SM
00:03
Overcast
50°F / 10°C 46°F / 8°C 88% 29.77 in
(1008 mb)
N 11.5 mph
(N 19 kph)
- 7SM
Time Weather Temperature Dewpoint Humidity Pressure Winds Precip Visibility


Weather for websites

WeatherForYou.com, LLC is not responsible for any damages or problems caused by this service. Current weather conditions are obtained from the closest station including government and personal stations which may have varying degrees of accuracy. Weather forecasts are derived from the NOAA NDFD. Like all things, this site belongs to Jesus Christ... He just trusts us to maintain it. If you have any questions or comments email webmaster@weatherforyou.com

Copyright © 2015, WeatherForYou.com LLC. All rights reserved.